Погода в Корпус-Кристи

США     27°45′01″N   97°27′08″W
темп.,
°C
ветер,
м/с
пор.,
м/с
влажн.,
%
обл.,
%
осадки,
мм/ч
давл.,
гПа
погр.,
м
8 марта, пн
пн800:00+16в348212 0.0 102778
03:00+16всв348636 0.0 1027106
06:00+16в368665 0.3 1027219
09:00+19вюв577194 0.4 1029872
12:00+20вюв676696 1.0 10291003
15:00+22вюв785853 0.1 10271200
18:00+20вюв686843 0.3 1026955
21:00+18вюв49848 0.0 1028343
9 марта, вт
вт900:00+17юв4109011 0.0 1027320
03:00+17ююв410920 0.0 1025368
06:00+17ююв411921 0.1 1025346
09:00+21ююв796922 0.0 1026985
12:00+23ююв896046 0.1 10261240
15:00+23юв9106097 0.1 10221209
18:00+21юв9127399 0.1 1021872
21:00+19юв8148378 0.0 1022666
10 марта, ср
ср1000:00+18ююв6138589 0.0 1021642
03:00+18ююв5128984 0.0 1019585
06:00+18ююв4129281 0.0 1019550
09:00+22ю81371100 0.1 10201256
12:00+23ююв10147099 0.3 10191177
15:00+24ююв101365100 0.1 10161262
18:00+22ююв9137495 0.1 1016985
21:00+20ююв71587100 0.0 1017746
11 марта, чт
чт1100:00+20ююв81689100 0.0 1016787
03:00+20ююв7158848 0.0 1015810
06:00+19ююв5139536 0.1 1015708
09:00+23ююв10146937 0.1 10171193
12:00+25ююв11146256 0.1 10161262
15:00+26ююв111459100 0.0 10131227
18:00+23ююв91474100 0.0 10131101
21:00+22ююв81488100 0.0 1015837
12 марта, пт
пт1200:00+22ююв101586100 0.1 1015964
03:00+22ююв91485100 0.1 10141031
06:00+21ююв71285100 0.3 1016969
09:00+23ююв9137394 0.1 10171047
12:00+26юв11136255 0.1 10171199
15:00+26юв10126136 0.0 10141196
18:00+23юв8128133 0.0 1013876
21:00+22юв91487100 0.1 1014773